User: anonymous   Login
Location: Unspecified
(0.0000°N, 0.0000°E)
Time: 10:19:40
(UTC+00:00)
Language:

GAS SHIELD (DEBRIS) - Orbit

View from above orbital plane
View from above orbital plane
View from above satellite
View from above satellite

Ground track
Ground track

The orbit data is extracted from the following two-line orbital elements,

1 27612U 02058H   18232.72061800 -.00000046  00000-0  13615-4 0  9994
2 27612  64.5558 133.1898 0056819 292.0161  67.4913 14.79357849844694
Epoch (UTC): 20 August 2018 17:17:41
Eccentricity: 0.0056819
inclination: 64.5558°
perigee height: 591 km
apogee height: 671 km
right ascension of ascending node: 133.1898°
argument of perigee: 292.0161°
revolutions per day: 14.79357849
mean anomaly at epoch: 67.4913°
orbit number at epoch: 84469

The dashed part of the orbit path shows where the satellite is in the earth's shadow,  

DLR